Terminal Aerodrome Forecast
Issued by NWS Norman, OK

Home | Current Version | Previous Version | Text Only | Print | Product List | Glossary On
Versions: 1 2 3 4 5 6 7 8 9 10 11 12 13 14 15
000
FTUS44 KOUN 230527
TAFSPS
TAF
KSPS 230527Z 2306/2406 34011KT P6SM SCT050 SCT250=

USA.gov is the U.S. government's official web portal to all federal, state and local government web resources and services.